Fort Eustis, VA

10:47 AM EDT on September 19, 2017 (GMT -0400)
Felker Army Air Field

Weather History for KFAF - October, 2011

Change the Weather History Date:

Wednesday, October 19, 2011

  Actual Average Record
Temperature  
Mean Temperature 68 °F -  
Max Temperature 74 °F 66 °F 89 °F (2016)
Min Temperature 64 °F 50 °F 41 °F (2015)
Cooling Degree Days 4    
Growing Degree Days 18 (Base 50)    
Moisture  
Dew Point 68 °F    
Average Humidity 95    
Maximum Humidity 100    
Minimum Humidity 88    
Precipitation  
Precipitation 1.61 in - - ()
Sea Level Pressure  
Sea Level Pressure 29.43 in    
Wind  
Wind Speed 6 mph (ESE)    
Max Wind Speed 15 mph    
Max Gust Speed 23 mph    
Visibility 7 miles    
Events Rain    
Averages and records for this station are not official NWS values.
T = Trace of Precipitation, MM = Missing Value Source: NWS Daily Summary

Daily Weather History Graph

Daily Weather History Graph

Search for Another Location

Airport or City:

Trip Planner

Search our weather history database for the weather conditions in past years. The results will help you decide how hot, cold, wet, or windy it might be!

Date:

Astronomy

Oct. 19, 2011 Rise Set
Actual Time 7:17 AM EDT 6:24 PM EDT
Civil Twilight 6:51 AM EDT 6:50 PM EDT
Nautical Twilight 6:21 AM EDT 7:21 PM EDT
Astronomical Twilight 5:50 AM EDT 7:51 PM EDT
Moon No Moon Rise 1:43 PM EDT
Length of Visible Light 11h 59m
Length of Day
11h 06m
Waning Gibbous, 55% of the Moon is Illuminated
Oct 19
Waning Gibbous
Oct 19
Last Quarter
Oct 26
New
Nov 2
First Quarter
Nov 10
Full

Hourly Weather History & Observations

Time (EDT) Temp. Dew Point Humidity Pressure Visibility Wind Dir Wind Speed Gust Speed Precip Events Conditions
12:55 AM 68.0 °F 66.7 °F 96% 29.71 in 10.0 mi North 3.5 mph - 0.03 in   Partly Cloudy
1:55 AM 68.4 °F 67.1 °F 96% 29.67 in 10.0 mi NE 5.8 mph - 0.03 in   Scattered Clouds
2:17 AM 68.0 °F 68.0 °F 100% 29.64 in 10.0 mi ENE 5.8 mph - N/A   Mostly Cloudy
2:22 AM 68.0 °F 68.0 °F 100% 29.64 in 7.0 mi East 6.9 mph - N/A Rain Light Rain
2:23 AM 68.0 °F 68.0 °F 100% 29.64 in 7.0 mi East 8.1 mph - N/A Rain Light Rain
2:55 AM 68.2 °F 67.5 °F 98% 29.61 in 5.0 mi ENE 8.1 mph - 0.14 in Rain Light Rain
3:14 AM 68.0 °F 68.0 °F 100% 29.60 in 9.0 mi East 6.9 mph - N/A   Mostly Cloudy
3:17 AM 68.0 °F 68.0 °F 100% 29.60 in 10.0 mi Variable 5.8 mph - N/A   Mostly Cloudy
3:21 AM 68.0 °F 66.2 °F 94% 29.60 in 10.0 mi East 5.8 mph - N/A   Mostly Cloudy
3:22 AM 68.0 °F 66.2 °F 94% 29.60 in 10.0 mi East 6.9 mph - N/A   Mostly Cloudy
3:27 AM 68.0 °F 66.2 °F 94% 29.59 in 10.0 mi East 5.8 mph - N/A   Mostly Cloudy
3:36 AM 68.0 °F 66.2 °F 94% 29.60 in 10.0 mi ENE 4.6 mph - N/A   Mostly Cloudy
3:44 AM 68.0 °F 66.2 °F 94% 29.58 in 6.0 mi ENE 5.8 mph - N/A Rain Light Rain
3:50 AM 68.0 °F 68.0 °F 100% 29.58 in 2.5 mi NE 6.9 mph - N/A Rain Light Rain
3:51 AM 68.0 °F 68.0 °F 100% 29.58 in 2.5 mi ENE 5.8 mph - N/A Rain Light Rain
3:54 AM 68.0 °F 68.0 °F 100% 29.58 in 1.8 mi ENE 5.8 mph - N/A Rain Rain
3:55 AM 68.2 °F 67.3 °F 97% 29.58 in 1.8 mi ENE 5.8 mph - 0.20 in Rain Rain
4:00 AM 68.0 °F 68.0 °F 100% 29.58 in 2.0 mi East 5.8 mph - N/A Rain Light Rain
4:03 AM 68.0 °F 68.0 °F 100% 29.58 in 2.0 mi Variable 6.9 mph - N/A Rain Light Rain
4:16 AM 68.0 °F 66.2 °F 94% 29.57 in 2.5 mi East 9.2 mph - N/A Rain Light Rain
4:20 AM 68.0 °F 66.2 °F 94% 29.56 in 2.0 mi East 10.4 mph - N/A Rain Light Rain
4:25 AM 68.0 °F 66.2 °F 94% 29.56 in 1.8 mi ENE 12.7 mph 18.4 mph N/A Rain Light Rain
4:26 AM 68.0 °F 66.2 °F 94% 29.56 in 2.0 mi ENE 12.7 mph - N/A Rain Light Rain
4:37 AM 66.2 °F 66.2 °F 100% 29.57 in 1.8 mi ENE 6.9 mph - N/A Rain Light Rain
4:40 AM 66.2 °F 66.2 °F 100% 29.57 in 1.8 mi ENE 6.9 mph - N/A Rain Light Rain
4:44 AM 66.2 °F 64.4 °F 94% 29.57 in 2.0 mi East 9.2 mph - N/A Rain Light Rain
4:55 AM 66.2 °F 64.6 °F 94% 29.57 in 2.0 mi ENE 8.1 mph - 0.63 in Rain Light Rain
5:26 AM 64.4 °F 64.4 °F 100% 29.55 in 3.0 mi NE 11.5 mph 23.0 mph N/A Rain Light Rain
5:32 AM 64.4 °F 64.4 °F 100% 29.55 in 3.0 mi NE 10.4 mph 19.6 mph N/A Rain Light Rain
5:46 AM 64.4 °F 64.4 °F 100% 29.54 in 5.0 mi NE 12.7 mph 19.6 mph N/A   Overcast
5:55 AM 64.9 °F 63.9 °F 96% 29.54 in 5.0 mi NE 8.1 mph 19.6 mph 0.24 in   Overcast
6:10 AM 64.4 °F 64.4 °F 100% 29.53 in 9.0 mi NE 8.1 mph 17.3 mph N/A   Mostly Cloudy
6:22 AM 64.4 °F 64.4 °F 100% 29.52 in 8.0 mi NE 8.1 mph - N/A   Overcast
6:31 AM 64.4 °F 64.4 °F 100% 29.52 in 7.0 mi NE 6.9 mph - N/A   Overcast
6:41 AM 66.2 °F 64.4 °F 94% 29.51 in 7.0 mi NE 13.8 mph 18.4 mph N/A   Overcast
6:55 AM 65.1 °F 63.5 °F 94% 29.51 in 10.0 mi NE 8.1 mph 21.9 mph 0.01 in   Overcast
7:55 AM 64.9 °F 63.5 °F 95% 29.50 in 10.0 mi Variable 4.6 mph - 0.01 in   Overcast
8:47 AM 64.4 °F 64.4 °F 100% 29.50 in 9.0 mi NNW 4.6 mph - N/A   Overcast
8:55 AM 65.3 °F 64.4 °F 97% 29.51 in 7.0 mi Calm Calm - N/A   Overcast
9:55 AM 65.5 °F 64.2 °F 96% 29.49 in 10.0 mi Calm Calm - 0.01 in   Overcast
9:56 AM 66.2 °F 64.4 °F 94% 29.49 in 10.0 mi WNW 3.5 mph - N/A   Overcast
10:01 AM 66.2 °F 64.4 °F 94% 29.49 in 10.0 mi Variable 3.5 mph - N/A   Overcast
10:55 AM 67.1 °F 65.1 °F 93% 29.46 in 10.0 mi ENE 4.6 mph - N/A   Overcast
11:02 AM 68.0 °F 66.2 °F 94% 29.47 in 10.0 mi Calm Calm - N/A   Overcast
11:19 AM 68.0 °F 66.2 °F 94% 29.45 in 10.0 mi Calm Calm - N/A   Overcast
11:22 AM 68.0 °F 66.2 °F 94% 29.45 in 9.0 mi ESE 3.5 mph - N/A   Overcast
11:55 AM 68.4 °F 66.4 °F 93% 29.45 in 10.0 mi Calm Calm - N/A   Overcast
12:19 PM 68.0 °F 66.2 °F 94% 29.44 in 10.0 mi SE 3.5 mph - N/A   Overcast
12:55 PM 69.8 °F 66.9 °F 91% 29.42 in 10.0 mi Calm Calm - N/A   Overcast
1:00 PM 69.8 °F 66.2 °F 88% 29.42 in 10.0 mi Calm Calm - N/A   Overcast
1:42 PM 69.8 °F 66.2 °F 88% 29.40 in 10.0 mi North 3.5 mph - N/A   Overcast
1:55 PM 69.8 °F 67.1 °F 91% 29.39 in 10.0 mi North 3.5 mph - N/A   Overcast
2:10 PM 69.8 °F 68.0 °F 94% 29.38 in 6.0 mi Calm Calm - N/A   Overcast
2:16 PM 71.6 °F 69.8 °F 94% 29.38 in 5.0 mi Calm Calm - N/A   Overcast
2:26 PM 71.6 °F 69.8 °F 94% 29.37 in 4.0 mi ENE 3.5 mph - N/A   Overcast
2:35 PM 71.6 °F 69.8 °F 94% 29.37 in 5.0 mi East 4.6 mph - N/A   Overcast
2:44 PM 71.6 °F 69.8 °F 94% 29.34 in 2.0 mi Variable 4.6 mph - N/A   Overcast
2:47 PM 71.6 °F 69.8 °F 94% 29.36 in 2.5 mi ENE 5.8 mph - N/A   Overcast
2:52 PM 71.6 °F 69.8 °F 94% 29.35 in 2.0 mi ENE 4.6 mph - N/A   Overcast
2:53 PM 71.6 °F 69.8 °F 94% 29.35 in 2.0 mi ENE 4.6 mph - N/A   Overcast
2:55 PM 70.9 °F 70.0 °F 97% 29.35 in 2.5 mi ENE 5.8 mph - 0.01 in   Overcast
2:57 PM 71.6 °F 69.8 °F 94% 29.35 in 2.5 mi East 4.6 mph - N/A   Overcast
2:59 PM 71.6 °F 69.8 °F 94% 29.35 in 2.5 mi East 3.5 mph - N/A   Overcast
3:00 PM 71.6 °F 69.8 °F 94% 29.35 in 3.0 mi East 4.6 mph - N/A   Overcast
3:09 PM 69.8 °F 69.8 °F 100% 29.35 in 2.5 mi East 5.8 mph - N/A   Overcast
3:13 PM 69.8 °F 69.8 °F 100% 29.35 in 2.0 mi East 5.8 mph - N/A   Overcast
3:37 PM 71.6 °F 69.8 °F 94% 29.34 in 3.0 mi ESE 9.2 mph 18.4 mph N/A   Overcast
3:39 PM 71.6 °F 69.8 °F 94% 29.33 in 3.0 mi SE 8.1 mph 18.4 mph N/A   Overcast
3:50 PM 71.6 °F 69.8 °F 94% 29.32 in 8.0 mi SE 9.2 mph - N/A   Overcast
3:55 PM 71.8 °F 70.3 °F 95% 29.32 in 10.0 mi SSE 9.2 mph - 0.02 in   Overcast
3:57 PM 71.6 °F 69.8 °F 94% 29.32 in 10.0 mi SE 6.9 mph - N/A   Overcast
3:58 PM 71.6 °F 69.8 °F 94% 29.32 in 10.0 mi SE 8.1 mph - N/A   Overcast
4:04 PM 71.6 °F 69.8 °F 94% 29.32 in 10.0 mi SE 10.4 mph - N/A   Mostly Cloudy
4:14 PM 73.4 °F 71.6 °F 94% 29.31 in 10.0 mi SE 10.4 mph 18.4 mph N/A   Mostly Cloudy
4:17 PM 73.4 °F 71.6 °F 94% 29.31 in 10.0 mi SE 11.5 mph 18.4 mph N/A   Overcast
4:55 PM 73.6 °F 70.5 °F 90% 29.30 in 10.0 mi SE 10.4 mph - N/A   Overcast
5:33 PM 73.4 °F 69.8 °F 88% 29.29 in 10.0 mi ESE 8.1 mph - N/A   Mostly Cloudy
5:55 PM 73.6 °F 70.9 °F 91% 29.29 in 10.0 mi SE 5.8 mph - N/A   Partly Cloudy
6:55 PM 73.6 °F 71.4 °F 93% 29.29 in 10.0 mi SSE 4.6 mph - N/A   Scattered Clouds
7:12 PM 73.4 °F 71.6 °F 94% 29.30 in 10.0 mi South 4.6 mph 16.1 mph N/A   Mostly Cloudy
7:18 PM 73.4 °F 71.6 °F 94% 29.30 in 10.0 mi SSE 4.6 mph - N/A   Scattered Clouds
7:34 PM 73.4 °F 71.6 °F 94% 29.31 in 10.0 mi SSE 5.8 mph - N/A   Mostly Cloudy
7:44 PM 73.4 °F 71.6 °F 94% 29.31 in 10.0 mi SSE 5.8 mph - N/A   Scattered Clouds
7:55 PM 73.8 °F 71.6 °F 93% 29.31 in 10.0 mi SSE 5.8 mph - N/A   Scattered Clouds
8:11 PM 73.4 °F 71.6 °F 94% 29.32 in 9.0 mi Variable 4.6 mph - N/A   Mostly Cloudy
8:12 PM 73.4 °F 71.6 °F 94% 29.32 in 8.0 mi Variable 4.6 mph - N/A Rain Light Rain
8:21 PM 73.4 °F 71.6 °F 94% 29.32 in 7.0 mi South 12.7 mph 23.0 mph N/A Rain Light Rain
8:23 PM 73.4 °F 69.8 °F 88% 29.32 in 8.0 mi South 11.5 mph 23.0 mph N/A Rain Light Rain
8:28 PM 71.6 °F 68.0 °F 88% 29.32 in 9.0 mi South 10.4 mph 23.0 mph N/A   Mostly Cloudy
8:37 PM 69.8 °F 68.0 °F 94% 29.33 in 10.0 mi Variable 6.9 mph - N/A   Overcast
8:52 PM 69.8 °F 68.0 °F 94% 29.33 in 10.0 mi South 3.5 mph - N/A   Mostly Cloudy
8:53 PM 69.8 °F 68.0 °F 94% 29.33 in 10.0 mi South 4.6 mph - N/A   Mostly Cloudy
8:55 PM 70.0 °F 67.8 °F 93% 29.33 in 10.0 mi South 3.5 mph - 0.03 in   Mostly Cloudy
9:01 PM 69.8 °F 68.0 °F 94% 29.33 in 10.0 mi South 4.6 mph - N/A   Mostly Cloudy
9:14 PM 69.8 °F 68.0 °F 94% 29.33 in 10.0 mi South 4.6 mph - N/A   Scattered Clouds
9:40 PM 69.8 °F 68.0 °F 94% 29.33 in 10.0 mi Variable 4.6 mph - N/A Rain Light Rain
9:51 PM 69.8 °F 68.0 °F 94% 29.34 in 9.0 mi SSE 8.1 mph - N/A   Mostly Cloudy
9:55 PM 69.8 °F 68.9 °F 97% 29.34 in 9.0 mi SSW 5.8 mph - 0.03 in   Overcast
9:58 PM 69.8 °F 69.8 °F 100% 29.34 in 9.0 mi SW 5.8 mph - N/A   Overcast
10:00 PM 69.8 °F 69.8 °F 100% 29.34 in 9.0 mi Variable 3.5 mph - N/A   Overcast
10:01 PM 69.8 °F 69.8 °F 100% 29.34 in 9.0 mi Variable 3.5 mph - N/A   Overcast
10:08 PM 69.8 °F 69.8 °F 100% 29.33 in 10.0 mi South 6.9 mph - N/A   Overcast
10:19 PM 71.6 °F 69.8 °F 94% 29.36 in 2.0 mi WSW 15.0 mph 21.9 mph N/A   Overcast
10:20 PM 71.6 °F 69.8 °F 94% 29.36 in 1.5 mi WSW 15.0 mph 21.9 mph N/A Rain Heavy Rain
10:29 PM 69.8 °F 68.0 °F 94% 29.36 in 1.5 mi SW 10.4 mph 21.9 mph N/A Rain Light Rain
10:30 PM 69.8 °F 66.2 °F 88% 29.36 in 2.5 mi SW 9.2 mph 19.6 mph N/A Rain Light Rain
10:31 PM 68.0 °F 66.2 °F 94% 29.36 in 4.0 mi SW 9.2 mph 19.6 mph N/A Rain Light Rain
10:32 PM 68.0 °F 66.2 °F 94% 29.36 in 5.0 mi SW 10.4 mph 19.6 mph N/A   Overcast
10:40 PM 68.0 °F 66.2 °F 94% 29.35 in 10.0 mi SSW 5.8 mph - N/A   Overcast
10:55 PM 68.5 °F 66.4 °F 93% 29.35 in 10.0 mi SSW 8.1 mph - 0.22 in   Overcast
11:55 PM 68.5 °F 65.8 °F 91% 29.36 in 10.0 mi SSW 6.9 mph - N/A   Scattered Clouds